Istanbul, Turkey

11:18 PM +03 on September 26, 2017 (GMT +0300)
Ataturk

Weather History for LTBA - August, 2013

Change the Weather History Date:

Monday, August 12, 2013

  Actual Average Record
Temperature  
Mean Temperature 80 °F -  
Max Temperature 89 °F 79 °F 102 °F (2002)
Min Temperature 71 °F 66 °F 64 °F (1997)
Cooling Degree Days 15    
Growing Degree Days 30 (Base 50)    
Moisture  
Dew Point 63 °F    
Average Humidity 58    
Maximum Humidity 88    
Minimum Humidity 21    
Precipitation  
Precipitation 0.00 in - - ()
Sea Level Pressure  
Sea Level Pressure 29.91 in    
Wind  
Wind Speed 8 mph ()    
Max Wind Speed 21 mph    
Max Gust Speed -    
Visibility 6.2 miles    
Events      
Averages and records for this station are not official NWS values.
T = Trace of Precipitation, MM = Missing Value Source: Averaged Metar Reports

Daily Weather History Graph

Daily Weather History Graph

Search for Another Location

Airport or City:

Trip Planner

Search our weather history database for the weather conditions in past years. The results will help you decide how hot, cold, wet, or windy it might be!

Date:

Astronomy

Aug. 12, 2013 Rise Set
Actual Time 6:11 AM EEST 8:07 PM EEST
Civil Twilight 5:41 AM EEST 8:37 PM EEST
Nautical Twilight 5:05 AM EEST 9:13 PM EEST
Astronomical Twilight 4:25 AM EEST 9:52 PM EEST
Moon 11:44 AM EEST (8/12) 10:44 PM EEST (8/12)
Length of Visible Light 14h 55m
Length of Day
13h 55m
Waxing Crescent, 28% of the Moon is Illuminated
Aug 12
Waxing Crescent
Aug 14
First Quarter
Aug 21
Full
Aug 28
Last Quarter
Sep 5
New

Hourly Weather History & Observations

Time (EEST) Temp. Heat Index Dew Point Humidity Pressure Visibility Wind Dir Wind Speed Gust Speed Precip Events Conditions
12:20 AM 77.0 °F - 69.8 °F 78% 29.86 in - NNE 8.1 mph - N/A   Clear
12:50 AM 75.2 °F - 68.0 °F 78% 29.86 in - North 6.9 mph - N/A   Clear
1:20 AM 75.2 °F - 68.0 °F 78% 29.86 in - Variable 8.1 mph - N/A   Clear
1:50 AM 77.0 °F - 68.0 °F 74% 29.86 in - Variable 8.1 mph - N/A   Clear
2:20 AM 75.2 °F - 68.0 °F 78% 29.86 in - NNE 5.8 mph - N/A   Clear
2:50 AM 75.2 °F - 68.0 °F 78% 29.86 in - NNE 5.8 mph - N/A   Clear
3:00 AM 76 °F - 68 °F 70% 29.88 in 6 mi NNE 5.8 mph - -  
3:20 AM 73.4 °F - 68.0 °F 83% 29.86 in - North 3.5 mph - N/A   Clear
3:50 AM 73.4 °F - 68.0 °F 83% 29.86 in - NNW 6.9 mph - N/A   Clear
4:20 AM 75.2 °F - 68.0 °F 78% 29.89 in - Variable 4.6 mph - N/A   Clear
4:50 AM 73.4 °F - 66.2 °F 78% 29.89 in - NNW 5.8 mph - N/A   Clear
5:20 AM 71.6 °F - 68.0 °F 88% 29.89 in - North 4.6 mph - N/A   Clear
5:50 AM 71.6 °F - 68.0 °F 88% 29.89 in - NNW 5.8 mph - N/A   Clear
6:20 AM 71.6 °F - 68.0 °F 88% 29.89 in - NNW 6.9 mph - N/A   Clear
6:50 AM 73.4 °F - 68.0 °F 83% 29.89 in 6.2 mi NNW 8.1 mph - N/A   Unknown
7:20 AM 73.4 °F - 68.0 °F 83% 29.89 in - NNW 8.1 mph - N/A   Clear
7:50 AM 78.8 °F - 68.0 °F 69% 29.89 in - Variable 9.2 mph - N/A   Clear
8:20 AM 78.8 °F - 66.2 °F 65% 29.92 in - Variable 8.1 mph - N/A   Clear
8:50 AM 82.4 °F 84.6 °F 66.2 °F 58% 29.92 in 6.2 mi Variable 8.1 mph - N/A   Partly Cloudy
9:00 AM 82 °F - 66 °F 50% 29.92 in 6 mi NNE 8.1 mph - -   Scattered Clouds
9:20 AM 82.4 °F 83.4 °F 62.6 °F 51% 29.92 in 6.2 mi Variable 6.9 mph - N/A   Partly Cloudy
9:50 AM 84.2 °F 83.5 °F 57.2 °F 40% 29.92 in 6.2 mi Variable 8.1 mph - N/A   Scattered Clouds
10:20 AM 86.0 °F 86.1 °F 60.8 °F 43% 29.92 in 6.2 mi NNE 9.2 mph - N/A   Scattered Clouds
10:50 AM 84.2 °F 83.8 °F 59.0 °F 42% 29.92 in 6.2 mi NE 10.4 mph - N/A   Scattered Clouds
11:20 AM 84.2 °F 83.5 °F 57.2 °F 40% 29.92 in 6.2 mi North 11.5 mph - N/A   Scattered Clouds
11:50 AM 86.0 °F 84.2 °F 53.6 °F 33% 29.95 in 6.2 mi NE 11.5 mph - N/A   Partly Cloudy
12:20 PM 87.8 °F - 51.8 °F 29% 29.92 in 6.2 mi NNE 13.8 mph - N/A   Partly Cloudy
12:50 PM 86.0 °F - 51.8 °F 31% 29.92 in 6.2 mi North 12.7 mph - N/A   Partly Cloudy
1:20 PM 87.8 °F - 51.8 °F 29% 29.92 in 6.2 mi NNE 13.8 mph - N/A   Partly Cloudy
1:50 PM 89.6 °F 87.3 °F 53.6 °F 29% 29.92 in 6.2 mi NNE 13.8 mph - N/A   Partly Cloudy
2:20 PM 89.6 °F 87.3 °F 53.6 °F 29% 29.92 in 6.2 mi North 16.1 mph - N/A   Partly Cloudy
2:50 PM 89.6 °F 87.3 °F 53.6 °F 29% 29.92 in - North 15.0 mph - N/A   Clear
3:00 PM 89 °F - 54 °F 21% 29.92 in 6 mi North 15.0 mph - -  
3:20 PM 87.8 °F 87.6 °F 60.8 °F 40% 29.92 in - North 16.1 mph - N/A   Clear
3:50 PM 87.8 °F 87.1 °F 59.0 °F 38% 29.92 in - North 15.0 mph - N/A   Clear
4:20 PM 87.8 °F 87.6 °F 60.8 °F 40% 29.92 in - North 16.1 mph - N/A   Clear
4:50 PM 86.0 °F 86.6 °F 62.6 °F 45% 29.92 in - North 17.3 mph - N/A   Clear
5:20 PM 86.0 °F 87.3 °F 64.4 °F 48% 29.92 in - North 20.7 mph - N/A   Clear
5:50 PM 84.2 °F 84.4 °F 60.8 °F 45% 29.92 in - North 17.3 mph - N/A   Clear
6:20 PM 84.2 °F 85.0 °F 62.6 °F 48% 29.92 in - North 16.1 mph - N/A   Clear
6:50 PM 84.2 °F 83.8 °F 59.0 °F 42% 29.92 in - North 12.7 mph - N/A   Clear
7:20 PM 82.4 °F 82.5 °F 59.0 °F 45% 29.92 in - North 10.4 mph - N/A   Clear
7:50 PM 82.4 °F 83.4 °F 62.6 °F 51% 29.92 in - NE 8.1 mph - N/A   Clear
8:20 PM 80.6 °F 82.3 °F 64.4 °F 58% 29.92 in - NNE 8.1 mph - N/A   Clear
8:50 PM 80.6 °F 82.7 °F 66.2 °F 61% 29.92 in - NNE 8.1 mph - N/A   Clear
9:20 PM 78.8 °F - 66.2 °F 65% 29.95 in - NNE 9.2 mph - N/A   Clear
9:50 PM 78.8 °F - 68.0 °F 69% 29.95 in - NNE 9.2 mph - N/A   Clear
10:20 PM 78.8 °F - 68.0 °F 69% 29.95 in - NNE 10.4 mph - N/A   Clear
10:50 PM 77.0 °F - 68.0 °F 74% 29.95 in - North 10.4 mph - N/A   Clear
11:20 PM 77.0 °F - 68.0 °F 74% 29.95 in - North 9.2 mph - N/A   Clear
11:50 PM 75.2 °F - 68.0 °F 78% 29.95 in - North 9.2 mph - N/A   Clear